Temp
-6 -6 -6 -6 -7 -7 -7 -7 -7 -7 -7 -7 -7 -6 -7 -7 -7 -6 -7 -7 -7 -7 -7 -7 -7 -7 -6 -6 -6 -6 -6 -6 -6 -6 -6 -6 -6 -6 -6 -6 -6 -6 -6
-5 -6 -6 -6 -7 -7 -7 -7 -7 -8 -8 -7 -7 -7 -7 -8 -9 -8 -7 -7 -7 -7 -7 -7 -7 -7 -7 -7 -6 -6 -6 -6 -6 -6 -6 -6 -6 -6 -6 -6 -6 -6 -6
-6 -6 -6 -6 -7 -8 -8 -8 -8 -8 -8 -7 -7 -7 -7 -7 -7 -7 -7 -7 -7 -7 -7 -7 -7 -7 -7 -7 -7 -7 -6 -6 -6 -6 -6 -6 -6 -6 -6 -6 -6 -6 -6
-6 -6 -7 -7 -7 -8 -8 -8 -8 -8 -8 -8 -8 -8 -8 -8 -7 -7 -7 -7 -7 -7 -7 -7 -7 -7 -7 -7 -7 -7 -6 -6 -6 -6 -6 -6 -6 -6 -6 -6 -6 -6 -6
-6 -7 -7 -7 -7 -8 -8 -8 -8 -8 -8 -8 -8 -8 -8 -8 -8 -8 -7 -7 -7 -7 -7 -7 -7 -7 -7 -7 -7 -7 -7 -6 -6 -6 -6 -6 -6 -6 -6 -6 -6 -6 -6
-6 -7 -7 -7 -7 -8 -8 -8 -8 -8 -8 -8 -8 -8 -8 -8 -8 -8 -7 -7 -8 -7 -7 -7 -7 -7 -7 -7 -7 -7 -7 -7 -6 -6 -6 -6 -7 -7 -7 -7 -7 -6 -6
-6 -7 -7 -7 -7 -7 -8 -8 -8 -8 -8 -7 -8 -8 -8 -8 -7 -8 -8 -8 -8 -8 -7 -7 -7 -7 -7 -7 -7 -7 -7 -7 -7 -7 -7 -7 -7 -7 -7 -7 -7 -7 -7
-6 -7 -7 -7 -7 -7 -8 -8 -8 -8 -8 -8 -8 -8 -8 -8 -8 -8 -8 -7 -8 -8 -7 -8 -7 -7 -7 -7 -8 -7 -7 -7 -7 -7 -7 -7 -7 -7 -7 -7 -7 -7 -7
-7 -7 -7 -7 -8 -8 -8 -8 -8 -8 -8 -8 -7 -7 -7 -8 -8 -8 -8 -8 -8 -8 -8 -8 -8 -7 -8 -8 -7 -8 -7 -7 -7 -7 -7 -7 -7 -7 -7 -7 -7 -7 -7
-7 -7 -7 -7 -7 -8 -8 -8 -8 -8 -8 -8 -8 -8 -8 -8 -8 -8 -8 -8 -8 -8 -8 -8 -8 -8 -8 -7 -7 -7 -7 -7 -7 -7 -7 -7 -7 -7 -8 -7 -7 -7 -7
-7 -7 -7 -7 -7 -7 -8 -8 -8 -8 -8 -8 -8 -8 -8 -8 -8 -8 -8 -8 -8 -8 -8 -8 -8 -8 -8 -8 -7 -7 -7 -7 -7 -7 -6 -7 -7 -7 -7 -8 -8 -7 -7
-7 -7 -7 -7 -7 -7 -8 -8 -8 -8 -9 -9 -8 -8 -8 -8 -8 -8 -8 -8 -8 -8 -7 -7 -7 -8 -8 -8 -7 -7 -7 -7 -7 -7 -7 -7 -7 -7 -7 -8 -7 -7 -7
-7 -7 -7 -8 -7 -7 -7 -8 -7 -8 -9 -8 -9 -8 -8 -8 -8 -8 -8 -7 -8 -8 -7 -7 -7 -7 -8 -8 -8 -8 -8 -8 -7 -7 -7 -7 -7 -7 -7 -7 -7 -7 -7
-7 -7 -8 -8 -7 -8 -7 -7 -8 -8 -8 -8 -8 -8 -8 -8 -9 -8 -8 -7 -7 -7 -8 -8 -8 -7 -7 -7 -8 -8 -8 -8 -7 -7 -7 -7 -7 -7 -7 -7 -7 -7 -7
-8 -8 -8 -8 -8 -8 -8 -7 -7 -7 -7 -6 -7 -8 -8 -8 -8 -8 -8 -7 -7 -8 -8 -7 -5 -7 -8 -8 -9 -9 -8 -8 -8 -7 -8 -7 -7 -7 -7 -7 -7 -7 -7
-8 -7 -8 -8 -7 -8 -8 -8 -8 -7 -6 -7 -7 -8 -8 -8 -8 -8 -8 -8 -6 -7 -9 -8 -8 -7 -7 -8 -8 -9 -8 -8 -8 -8 -7 -7 -8 -7 -7 -7 -7 -7 -7
-8 -7 -7 -8 -8 -7 -8 -8 -8 -8 -8 -8 -8 -8 -8 -8 -8 -8 -8 -8 -8 -7 -8 -7 -8 -8 -7 -8 -8 -9 -9 -9 -9 -8 -8 -8 -8 -8 -7 -7 -7 -7 -7
-8 -8 -8 -8 -8 -8 -8 -8 -8 -8 -8 -8 -7 -7 -8 -8 -8 -8 -8 -8 -7 -7 -8 -8 -8 -7 -7 -7 -8 -9 -9 -8 -8 -8 -8 -8 -8 -7 -7 -6 -7 -7 -7
-8 -8 -8 -8 -8 -8 -8 -8 -8 -8 -8 -8 -8 -7 -7 -7 -8 -8 -8 -8 -8 -7 -7 -7 -7 -7 -7 -8 -8 -8 -9 -9 -8 -8 -8 -8 -8 -7 -7 -7 -7 -7 -7
-8 -9 -8 -8 -8 -7 -8 -7 -7 -7 -8 -8 -8 -8 -8 -8 -8 -8 -7 -7 -7 -7 -7 -7 -7 -8 -8 -8 -8 -8 -8 -8 -8 -8 -8 -8 -7 -8 -7 -8 -8 -7 -7
-8 -9 -8 -8 -7 -7 -7 -7 -7 -8 -8 -7 -8 -8 -8 -8 -8 -8 -8 -7 -7 -7 -7 -7 -8 -8 -7 -7 -8 -8 -8 -8 -8 -8 -8 -8 -8 -8 -7 -7 -8 -8 -8
-8 -8 -8 -8 -8 -8 -7 -7 -7 -7 -8 -8 -7 -7 -7 -7 -7 -7 -7 -7 -7 -7 -7 -7 -8 -8 -8 -7 -7 -8 -8 -8 -8 -8 -8 -8 -8 -8 -8 -8 -8 -7 -6
-8 -8 -8 -7 -8 -7 -7 -7 -7 -8 -8 -8 -7 -7 -7 -7 -7 -7 -7 -7 -8 -7 -7 -8 -8 -8 -8 -8 -8 -8 -8 -8 -8 -8 -8 -8 -8 -8 -8 -8 -7 -7 -7
-8 -8 -8 -8 -8 -8 -8 -7 -8 -8 -8 -7 -7 -7 -7 -6 -7 -7 -7 -7 -7 -8 -8 -8 -8 -8 -8 -8 -8 -7 -8 -7 -8 -8 -8 -8 -8 -8 -9 -9 -7 -7 -7
-8 -8 -8 -8 -8 -8 -8 -8 -8 -9 -8 -7 -7 -6 -6 -7 -7 -7 -7 -7 -7 -7 -8 -8 -7 -7 -8 -7 -7 -7 -8 -8 -8 -8 -8 -8 -8 -8 -9 -9 -8 -8 -8
-8 -8 -8 -8 -8 -8 -8 -8 -8 -8 -8 -7 -7 -7 -6 -6 -7 -6 -7 -7 -7 -7 -7 -8 -8 -8 -8 -8 -7 -7 -8 -8 -8 -8 -8 -8 -8 -8 -8 -7 -8 -8 -8
Height
5904 5904 5903 5904 5904 5905 5905 5906 5906 5907 5907 5907 5907 5907 5907 5907 5907 5908 5909 5910 5911 5911 5911 5913 5913 5913 5914 5915 5916 5917 5917 5916 5916 5916 5915 5915 5914 5913 5913 5913 5912 5912 5911
5902 5902 5902 5902 5903 5904 5904 5904 5904 5906 5907 5906 5906 5907 5907 5907 5907 5909 5909 5910 5911 5911 5912 5913 5913 5913 5915 5916 5917 5917 5918 5918 5918 5919 5918 5918 5916 5916 5916 5915 5915 5914 5914
5902 5902 5902 5902 5903 5904 5905 5905 5905 5906 5906 5906 5906 5906 5907 5908 5908 5910 5909 5910 5911 5911 5911 5913 5914 5914 5915 5916 5917 5918 5919 5919 5919 5920 5921 5920 5919 5918 5918 5917 5917 5916 5916
5903 5902 5902 5902 5902 5903 5904 5905 5905 5906 5907 5907 5907 5907 5907 5908 5909 5910 5910 5909 5910 5911 5912 5913 5914 5915 5915 5916 5918 5919 5919 5920 5920 5921 5922 5922 5920 5920 5920 5920 5919 5919 5918
5902 5902 5902 5902 5903 5904 5905 5906 5905 5905 5906 5907 5907 5907 5907 5907 5907 5907 5908 5909 5910 5910 5911 5911 5913 5915 5916 5915 5917 5919 5919 5920 5921 5921 5923 5923 5922 5921 5921 5922 5921 5921 5920
5903 5902 5903 5903 5902 5903 5904 5905 5905 5905 5905 5905 5905 5906 5906 5906 5907 5907 5907 5907 5909 5910 5909 5910 5912 5914 5916 5916 5917 5919 5920 5920 5921 5922 5923 5923 5924 5923 5923 5923 5923 5923 5922
5903 5902 5902 5903 5902 5902 5902 5903 5904 5905 5905 5905 5904 5904 5905 5905 5905 5907 5907 5908 5908 5909 5909 5910 5911 5913 5914 5916 5917 5918 5919 5921 5922 5923 5922 5924 5924 5925 5924 5924 5924 5924 5924
5902 5902 5902 5902 5902 5901 5902 5902 5902 5902 5902 5903 5904 5904 5904 5904 5905 5906 5906 5907 5907 5907 5908 5909 5910 5912 5913 5914 5915 5917 5919 5920 5921 5922 5922 5923 5924 5924 5925 5925 5925 5924 5924
5901 5901 5902 5901 5902 5902 5901 5900 5900 5901 5902 5903 5903 5903 5903 5903 5904 5904 5905 5906 5907 5906 5906 5907 5909 5911 5912 5913 5915 5916 5918 5919 5920 5922 5921 5922 5923 5924 5924 5925 5925 5925 5925
5901 5901 5901 5900 5900 5901 5900 5898 5898 5899 5899 5901 5902 5902 5903 5902 5902 5904 5905 5905 5906 5906 5906 5907 5907 5909 5910 5912 5913 5915 5916 5918 5919 5921 5922 5921 5922 5923 5923 5924 5925 5925 5924
5901 5900 5900 5900 5899 5898 5897 5896 5895 5896 5897 5898 5900 5900 5901 5901 5901 5902 5903 5904 5903 5905 5906 5906 5905 5906 5908 5910 5911 5912 5913 5916 5918 5919 5923 5922 5921 5921 5922 5923 5923 5923 5923
5903 5901 5899 5900 5897 5898 5895 5895 5894 5894 5895 5896 5896 5898 5899 5900 5901 5901 5903 5903 5903 5903 5903 5904 5904 5904 5905 5907 5908 5910 5911 5915 5916 5917 5919 5919 5919 5920 5920 5921 5921 5921 5921
5905 5903 5900 5900 5897 5896 5894 5893 5893 5892 5893 5895 5896 5895 5896 5898 5899 5900 5901 5901 5900 5900 5902 5903 5903 5903 5903 5904 5905 5907 5910 5912 5913 5914 5915 5916 5917 5918 5918 5919 5918 5918 5920
5903 5901 5900 5898 5897 5897 5895 5894 5893 5890 5890 5891 5892 5894 5895 5896 5895 5896 5896 5896 5898 5899 5896 5894 5899 5901 5901 5902 5903 5904 5907 5909 5911 5912 5913 5914 5915 5916 5916 5916 5917 5917 5916
5902 5899 5897 5895 5895 5895 5894 5892 5891 5888 5858 5895 5892 5892 5893 5894 5893 5894 5893 5893 5895 5893 5892 5881 5887 5899 5897 5899 5900 5902 5904 5905 5907 5909 5910 5911 5912 5913 5914 5914 5915 5915 5913
5902 5899 5895 5892 5892 5892 5892 5892 5890 5890 5886 5894 5891 5891 5891 5891 5891 5890 5889 5890 5893 5893 5879 5886 5886 5895 5894 5895 5899 5901 5902 5902 5904 5905 5906 5907 5909 5910 5911 5912 5913 5913 5912
5899 5895 5892 5889 5889 5888 5888 5889 5889 5888 5887 5888 5888 5889 5889 5889 5888 5887 5886 5887 5889 5892 5889 5864 5868 5889 5890 5891 5895 5897 5899 5899 5900 5900 5902 5903 5905 5907 5909 5911 5911 5911 5912
5897 5893 5890 5887 5886 5885 5885 5886 5887 5886 5885 5885 5886 5886 5886 5885 5886 5885 5886 5886 5883 5885 5884 5885 5882 5885 5886 5887 5889 5893 5895 5896 5897 5898 5898 5900 5902 5904 5906 5908 5909 5909 5910
5897 5892 5889 5886 5883 5881 5882 5883 5884 5884 5883 5883 5883 5883 5883 5883 5881 5881 5882 5881 5879 5879 5883 5882 5881 5883 5882 5883 5885 5888 5891 5893 5894 5895 5896 5897 5899 5901 5903 5905 5903 5902 5903
5895 5890 5886 5882 5878 5875 5877 5878 5881 5882 5880 5880 5881 5882 5881 5881 5880 5879 5878 5877 5877 5875 5874 5874 5875 5876 5877 5879 5882 5884 5887 5889 5890 5892 5893 5895 5896 5897 5898 5900 5897 5886 5891
5894 5889 5884 5877 5873 5871 5871 5875 5878 5880 5879 5879 5879 5879 5879 5877 5874 5873 5870 5870 5869 5869 5869 5870 5869 5870 5872 5873 5878 5880 5883 5885 5887 5887 5889 5890 5891 5893 5895 5895 5892 5896 5896
5893 5888 5882 5876 5869 5864 5867 5873 5877 5879 5879 5878 5878 5877 5875 5873 5870 5867 5866 5864 5863 5864 5864 5863 5864 5864 5866 5868 5872 5875 5878 5880 5881 5882 5883 5885 5886 5889 5890 5890 5892 5892 5894
5891 5888 5883 5876 5871 5867 5868 5872 5874 5878 5877 5877 5876 5874 5872 5868 5865 5863 5861 5860 5858 5858 5859 5859 5860 5860 5860 5861 5865 5868 5871 5873 5874 5878 5878 5880 5882 5883 5884 5885 5886 5890 5890
5888 5885 5881 5877 5874 5871 5870 5872 5874 5874 5874 5875 5873 5872 5868 5865 5864 5862 5860 5856 5855 5853 5854 5855 5854 5855 5855 5855 5856 5860 5864 5866 5869 5872 5873 5875 5877 5877 5876 5878 5880 5881 5884
5886 5884 5882 5878 5875 5872 5871 5872 5872 5873 5873 5872 5871 5869 5866 5863 5862 5859 5857 5855 5852 5850 5850 5849 5848 5848 5849 5851 5853 5856 5859 5861 5863 5866 5869 5871 5873 5873 5874 5875 5876 5878 5883
5886 5883 5881 5879 5877 5873 5872 5872 5873 5873 5871 5870 5869 5866 5865 5861 5860 5857 5854 5852 5849 5847 5845 5844 5844 5844 5844 5847 5850 5852 5854 5856 5859 5862 5865 5866 5867 5869 5872 5867 5872 5874 5882
Wind_Speed
3 5 6 7 7 7 6 6 5 4 6 5 6 7 4 4 6 8 10 10 8 8 8 7 8 9 11 10 10 10 12 13 15 15 16 16 18 17 16 15 14 13 12
4 4 5 7 8 6 5 4 3 5 7 6 7 7 5 3 4 8 9 9 9 8 9 9 8 7 11 11 10 9 9 9 11 12 15 15 17 18 17 16 16 14 13
4 5 6 6 5 5 4 4 3 4 5 5 5 5 5 4 9 9 8 9 8 8 9 8 8 7 7 12 9 9 8 8 9 10 11 14 15 16 16 16 16 15 14
4 5 6 5 5 5 6 5 4 4 5 5 5 5 5 5 8 7 5 6 9 9 11 10 9 7 8 10 8 8 9 8 8 9 9 11 13 15 14 13 14 14 13
3 4 6 5 4 5 6 7 7 8 9 9 9 9 8 7 6 4 5 12 8 10 11 11 11 10 9 10 11 8 9 8 8 8 9 9 10 11 12 11 12 12 11
6 4 4 4 4 5 6 8 9 10 12 13 13 13 14 12 10 7 6 7 16 12 10 12 13 12 11 11 12 12 10 9 7 7 7 8 8 8 9 9 9 9 9
3 3 3 4 4 4 5 7 8 10 10 11 10 11 12 13 13 10 7 9 14 11 10 11 14 14 14 13 13 13 12 9 8 7 7 6 5 5 5 5 5 6 7
4 1 4 4 5 4 6 6 8 10 10 11 10 9 10 11 11 10 10 10 12 19 14 11 11 14 16 15 16 16 15 13 10 8 7 6 5 4 3 3 1 2 3
2 2 2 4 4 4 6 6 8 9 9 10 10 9 9 10 10 11 12 12 12 12 15 15 12 14 16 16 16 16 16 16 13 10 9 7 7 5 5 5 5 4 1
3 1 3 3 4 6 6 6 7 9 9 11 11 11 10 9 10 11 11 12 13 13 13 17 12 19 16 18 18 21 17 16 16 15 11 11 8 7 7 6 5 8 5
3 1 1 5 7 8 7 7 9 11 10 12 13 14 13 11 10 12 12 13 15 16 14 13 14 14 20 18 19 18 21 18 16 13 6 11 10 9 9 10 9 9 9
0 2 3 5 5 8 8 8 10 10 10 10 13 15 13 14 13 13 13 13 15 15 17 16 16 15 14 23 23 20 19 21 19 17 16 15 12 11 11 11 14 13 12
11 9 6 6 5 9 7 10 11 13 12 9 13 13 16 15 15 16 16 16 15 14 16 16 18 17 13 19 20 22 20 17 21 20 20 18 16 14 13 14 17 17 15
9 10 10 9 8 10 8 7 10 12 11 13 10 13 15 16 15 19 20 19 17 17 19 20 18 20 16 16 14 11 18 23 24 22 21 21 18 15 16 14 14 13 18
15 9 11 10 10 10 9 7 8 6 15 11 8 10 10 10 11 17 22 25 15 20 17 16 10 21 18 17 16 13 16 18 23 25 24 24 20 17 16 15 11 12 14
18 17 18 9 10 9 11 10 7 3 3 9 7 6 6 6 8 15 19 26 21 19 23 16 15 20 21 19 19 21 21 15 22 26 27 28 22 19 16 15 14 13 7
23 24 12 5 8 9 9 11 10 9 8 7 5 5 7 8 11 11 14 12 18 21 22 20 4 20 18 21 22 21 21 19 17 15 24 23 22 18 17 15 17 15 8
24 19 22 6 7 9 10 11 9 10 9 9 12 12 15 16 14 13 15 16 19 18 19 22 18 18 24 24 25 25 23 23 20 19 18 16 18 17 17 16 16 14 13
22 22 18 18 12 13 18 14 14 10 10 12 13 14 14 16 18 19 18 20 22 23 22 21 22 21 21 22 22 26 25 22 21 22 21 20 20 19 20 19 18 17 14
25 21 21 26 21 19 17 16 14 12 11 12 10 14 14 15 17 20 23 25 27 27 27 28 26 24 21 21 23 27 25 26 22 23 27 24 25 20 16 19 25 21 18
24 20 23 27 25 14 17 16 12 10 9 12 12 16 16 18 22 23 23 20 21 22 23 22 25 24 24 24 24 26 28 27 24 21 27 26 32 24 21 18 25 19 16
21 19 21 25 27 12 19 16 12 10 9 12 14 15 18 21 23 23 19 19 19 19 21 22 21 21 24 29 28 28 29 30 28 25 24 29 29 27 22 20 21 19 18
22 17 19 23 21 13 20 14 6 5 8 11 12 17 21 21 21 19 18 17 18 18 19 22 22 23 22 27 31 30 29 29 30 27 26 26 30 30 26 26 22 23 21
21 17 18 20 18 11 5 10 4 7 9 10 14 20 22 19 20 17 15 16 15 14 18 21 21 22 22 21 23 30 29 28 28 27 27 26 30 30 29 30 26 26 25
20 16 15 17 15 9 6 3 4 6 8 13 17 22 24 19 19 17 15 16 15 16 16 18 20 20 21 19 20 25 27 28 27 25 25 24 24 27 31 32 31 28 25
18 15 12 15 14 9 5 7 9 9 10 14 19 22 21 17 17 16 16 17 17 17 16 16 15 17 18 24 21 22 25 27 26 25 26 25 23 23 24 18 23 29 18
Wind_Direction
296 286 257 231 231 235 241 258 274 255 192 209 209 191 184 191 177 179 186 172 179 165 163 158 141 137 139 131 121 112 103 93 86 78 74 75 75 74 74 76 79 83 80
281 266 264 254 243 246 239 227 222 222 236 229 207 193 181 212 172 185 181 175 178 178 174 174 160 151 158 141 133 132 116 101 92 89 83 79 79 76 75 74 74 72 75
289 265 260 255 242 244 255 253 220 214 207 194 185 185 179 173 169 190 179 174 192 183 188 182 179 157 141 135 140 142 133 120 105 102 92 86 84 84 81 79 76 70 70
292 267 265 248 227 228 242 258 247 231 227 223 218 213 208 203 212 224 190 185 187 194 184 185 186 176 155 155 156 148 142 140 129 117 115 99 97 92 88 84 82 78 73
310 275 259 252 248 260 264 273 261 256 252 242 244 250 250 241 234 223 199 220 200 200 194 177 186 189 179 169 159 159 146 145 152 139 135 116 103 99 96 88 82 78 74
338 304 281 277 242 246 266 263 257 252 250 250 251 249 251 253 246 232 232 218 197 198 197 188 189 196 190 186 171 170 162 151 154 153 149 134 117 111 103 91 80 75 68
333 268 250 234 233 221 228 229 244 249 252 252 253 251 246 245 246 242 226 197 188 185 194 197 192 196 198 193 188 179 180 174 172 169 149 156 146 139 130 106 89 68 63
356 333 232 223 230 225 224 224 237 241 243 242 246 249 249 249 240 232 223 216 202 208 186 185 198 202 202 203 197 192 191 189 196 188 169 177 188 196 193 216 183 93 57
66 28 263 233 250 256 232 235 230 239 244 243 248 250 251 258 245 232 230 224 218 201 203 191 203 208 207 207 212 203 200 200 192 209 203 198 204 219 234 242 249 247 256
87 45 259 265 260 257 250 254 251 247 244 251 256 249 246 249 257 247 233 232 239 229 204 199 210 211 213 209 215 212 206 207 205 208 215 207 215 230 242 246 252 257 247
119 284 329 264 274 268 259 254 251 246 244 250 256 260 262 262 256 255 248 239 232 236 234 213 221 223 218 216 225 209 210 211 213 215 243 216 221 235 247 253 246 244 244
19 240 276 276 286 275 261 258 270 271 258 259 256 257 266 265 263 258 254 246 238 239 239 237 234 236 251 223 223 227 223 212 212 219 219 227 229 239 241 256 263 271 222
332 296 267 282 291 266 252 251 257 265 258 256 269 268 266 267 267 261 259 255 246 242 246 247 247 247 253 213 200 221 223 224 221 221 224 231 234 242 249 253 264 289 223
341 314 293 298 278 271 257 258 237 244 251 248 250 266 278 260 258 249 247 239 251 246 237 230 240 245 241 252 239 214 229 226 227 233 231 236 239 244 250 266 273 289 232
9 359 300 281 275 282 264 248 257 269 220 292 257 256 274 289 287 261 257 243 244 242 244 220 235 249 239 243 264 254 233 212 232 237 240 238 240 245 252 258 271 286 278
9 7 357 290 272 281 291 284 271 265 244 262 277 280 298 303 295 297 267 250 251 250 244 221 242 243 247 238 240 254 254 229 231 229 239 248 233 242 250 260 264 264 243
354 350 350 331 269 266 282 287 294 298 292 299 304 322 321 324 316 305 308 296 262 253 257 258 244 262 252 247 242 247 249 246 253 244 234 230 225 238 246 258 263 266 238
350 8 3 327 263 260 264 268 282 297 299 301 310 324 321 322 316 305 292 284 271 263 259 290 280 262 259 259 246 244 249 247 250 255 247 235 229 242 252 259 265 271 277
346 349 349 334 305 265 257 265 268 292 295 291 296 306 313 314 316 312 301 292 286 281 269 267 266 263 261 263 258 249 243 247 260 253 251 249 237 244 254 259 255 248 258
342 347 337 330 326 284 252 259 261 283 289 279 295 301 308 307 309 303 294 287 282 279 277 275 268 266 268 260 260 247 242 242 252 254 245 248 246 252 258 250 252 277 277
334 337 338 335 329 269 236 237 253 277 281 308 320 323 318 316 313 310 303 294 289 282 279 276 268 266 258 259 254 247 241 247 248 255 246 241 245 251 253 268 250 254 272
324 333 337 338 345 252 199 212 238 260 296 312 324 325 324 322 320 323 301 292 285 280 277 275 271 273 263 251 248 245 242 244 249 249 253 244 243 245 245 261 241 250 265
323 330 339 341 354 1 210 206 204 271 314 318 326 332 326 321 326 318 320 313 290 276 276 276 274 270 266 257 248 244 244 243 247 247 252 249 243 249 252 252 254 252 253
317 326 340 342 343 13 133 189 230 315 316 321 337 334 333 327 326 325 313 316 314 292 272 273 277 271 266 261 254 239 240 242 243 246 249 248 247 248 252 250 257 249 249
318 325 337 349 347 332 322 313 334 343 338 344 338 337 335 330 329 337 329 318 320 307 286 275 274 273 261 253 251 239 239 240 240 242 246 244 248 250 252 259 253 259 262
322 317 344 358 360 7 6 45 24 3 354 346 340 335 331 330 329 330 332 334 330 306 291 286 273 269 262 248 255 238 237 238 237 240 244 246 251 257 260 269 261 261 265